Theta_e
327 328 328 328 327 325 324 323 322 322 322 322 322 323 323 322 320 318 318 317 317 317 317 319 318 317 317 316 315 315 314 315 315 315 315 315 315 314 314 314 315 315 315 314 313 314 316 319 321 322 322 321 320 320 320 321 321 321 319 318 317 316 315 313 312 311 312 311 308 307 307 307 308 308 308 307 307 307 307 308 308 308 309 309 308
328 328 326 326 325 324 323 322 321 321 321 322 323 324 323 321 319 318 317 315 315 315 316 318 318 317 317 315 314 314 314 315 315 314 314 315 315 314 313 313 314 313 314 315 314 313 313 314 317 319 321 321 320 320 320 320 321 320 319 319 318 316 315 314 312 310 311 311 308 307 307 307 308 308 308 308 307 307 307 307 308 308 309 309 309
327 326 325 324 324 323 322 322 321 321 321 322 324 324 323 321 319 318 317 315 314 315 316 318 318 317 316 315 314 313 313 313 314 313 314 315 314 314 314 315 315 314 314 315 314 314 313 313 313 315 317 318 319 318 318 317 318 318 318 318 318 317 315 314 312 310 310 310 308 307 307 307 308 309 309 308 308 308 308 308 307 307 308 309 309
326 325 323 323 323 323 323 322 322 322 322 322 322 322 322 320 318 318 316 314 315 316 316 316 316 316 316 316 315 314 314 314 314 314 314 314 315 315 316 316 316 315 315 314 314 314 314 314 313 313 314 315 315 315 315 315 316 316 316 317 317 316 315 314 311 310 309 309 308 307 307 307 308 308 309 309 309 308 308 308 308 308 307 308 308
326 325 323 323 323 323 322 322 322 322 321 322 321 321 320 319 318 318 316 314 315 316 315 315 316 316 316 316 315 314 314 314 314 314 314 314 315 315 315 315 315 316 315 314 314 313 314 314 314 314 314 314 313 314 314 314 315 315 314 316 316 314 313 313 311 309 309 308 308 307 307 307 307 307 308 308 309 309 309 309 309 309 308 307 307
327 325 324 324 323 322 322 321 321 321 320 320 318 318 319 319 318 317 316 315 316 316 315 315 316 316 316 315 315 315 315 314 314 314 315 315 315 316 315 314 314 314 314 314 313 313 313 313 314 314 315 314 314 314 314 314 315 314 313 314 314 312 311 311 309 308 308 308 307 307 307 307 307 307 307 307 308 309 309 309 309 309 308 308 307
326 325 324 323 323 322 321 320 320 320 319 316 314 314 317 319 318 317 317 316 316 317 316 315 315 315 315 315 315 316 316 316 315 315 316 316 315 315 315 315 314 314 314 314 313 313 313 313 313 313 313 314 314 315 315 315 314 313 312 312 311 310 309 309 308 308 308 307 307 307 307 307 307 308 308 308 307 308 309 309 309 308 308 308 308
326 325 324 323 322 321 321 321 321 320 318 316 315 314 315 318 318 317 318 317 317 317 317 316 315 315 315 316 316 316 316 317 316 316 316 316 314 315 315 315 314 314 314 314 313 314 315 315 314 313 313 313 313 314 315 315 315 313 311 310 310 309 309 309 309 308 307 308 307 308 308 309 309 310 310 309 308 308 309 309 309 308 309 309 308
325 325 324 323 322 321 321 321 321 320 318 317 315 314 315 319 319 318 318 318 318 318 318 317 317 316 316 316 316 316 316 317 317 316 316 316 315 315 315 315 314 314 315 314 314 316 316 317 316 315 315 315 315 315 315 315 315 315 313 312 312 311 311 311 310 309 308 308 308 309 310 310 311 311 310 309 309 309 309 309 309 309 309 309 308
323 323 323 322 321 321 321 321 320 319 318 316 314 315 318 320 319 318 319 319 318 318 318 318 318 317 317 317 317 317 317 318 318 317 316 316 316 316 316 315 315 315 317 315 315 316 317 317 317 317 316 317 317 316 316 315 315 315 314 314 314 314 314 313 312 311 310 309 309 309 310 311 311 311 310 310 309 309 310 310 309 309 308 308 307
322 322 321 320 320 320 319 320 319 319 320 319 318 319 320 320 319 319 319 318 318 318 318 318 318 318 318 317 317 318 318 318 319 318 317 316 317 318 318 317 316 317 318 318 317 318 318 318 318 317 317 317 317 317 317 316 315 315 315 314 314 314 314 314 314 314 313 312 311 311 311 311 312 311 310 310 310 310 310 310 309 308 308 307 307
322 322 321 320 320 320 319 320 320 320 320 320 320 321 321 320 320 320 319 319 319 318 317 317 317 317 317 317 317 318 318 318 318 319 319 318 318 319 319 318 318 319 319 320 319 320 320 319 319 319 319 319 319 318 317 317 316 316 315 315 314 314 314 314 314 314 314 314 313 313 313 312 312 312 311 310 310 310 310 309 309 308 307 307 306
321 321 321 321 320 320 320 320 319 320 320 320 320 321 321 321 321 321 321 320 320 320 319 319 319 318 318 317 317 318 318 318 318 319 320 319 319 319 319 319 319 319 319 320 321 321 321 321 321 320 320 320 320 319 319 318 317 316 317 316 316 316 316 315 314 313 314 314 314 314 313 313 313 312 311 310 310 310 309 308 308 307 307 306 305
314 314 315 315 317 318 319 319 318 318 319 320 320 320 320 321 322 322 322 322 321 321 321 320 320 319 319 319 319 319 319 319 319 319 320 320 320 320 320 321 320 320 320 321 322 322 322 321 321 320 320 319 319 320 319 318 318 317 317 317 317 317 317 316 314 313 313 314 314 314 313 313 313 312 311 310 310 309 309 308 307 306 305 304 302
305 305 305 306 309 312 316 318 318 319 319 318 318 318 319 320 320 320 321 322 322 322 321 321 320 319 319 319 319 319 319 319 319 319 319 319 319 319 320 320 320 320 321 321 321 321 320 320 320 320 320 319 319 319 319 318 318 317 317 317 317 317 317 316 315 313 313 313 313 313 313 312 312 311 311 310 309 309 308 307 305 304 303 302 300
303 303 303 303 303 305 308 311 313 314 314 313 312 313 315 318 319 320 320 320 320 320 321 320 319 319 319 319 319 319 319 319 319 319 319 319 319 319 319 320 320 320 320 320 320 319 318 318 318 318 318 318 318 319 319 318 318 317 317 317 317 317 316 315 314 313 313 312 312 311 311 311 311 310 309 308 308 307 305 304 303 302 302 300 299
302 302 302 302 302 303 303 304 305 306 307 306 306 307 309 311 315 317 319 320 320 320 321 321 320 320 320 320 320 319 318 317 318 319 320 320 319 319 319 319 320 320 319 319 319 318 317 317 317 318 318 318 318 318 318 318 317 316 316 317 317 316 315 314 313 313 313 312 311 310 310 309 309 308 307 306 305 304 303 303 302 301 300 300 299
301 301 302 302 302 302 302 302 303 303 303 303 304 305 306 307 308 310 312 313 314 315 316 317 319 320 320 320 321 320 319 318 319 320 320 320 320 319 319 318 319 318 318 318 318 317 317 317 317 317 317 317 317 318 318 318 317 316 317 317 316 314 313 313 313 312 311 310 310 309 309 308 307 306 305 304 303 303 302 302 301 301 300 300 299
300 301 301 301 301 302 302 302 302 302 302 302 303 303 304 304 305 306 306 306 306 307 308 310 312 313 315 316 318 319 319 319 319 320 320 320 320 320 319 319 319 319 318 318 318 318 318 317 317 317 316 316 317 318 318 318 318 317 317 316 314 313 312 312 311 309 308 308 308 308 307 306 305 304 303 303 302 302 302 302 302 301 301 300 299
300 300 300 301 301 301 301 301 301 302 301 302 302 302 303 303 303 304 304 304 304 305 305 305 306 307 307 309 310 311 313 315 317 318 318 318 319 319 320 320 319 319 319 319 318 318 317 317 317 316 316 316 318 319 319 319 318 318 316 315 314 313 311 310 308 307 307 308 307 307 306 304 303 303 303 302 302 302 302 301 301 301 300 300 298
299 299 299 300 300 300 300 300 300 301 301 301 301 302 302 302 303 303 303 303 303 304 304 304 305 305 305 306 306 307 308 310 312 314 316 317 317 318 318 318 318 319 319 319 318 318 317 317 317 316 316 317 318 319 319 318 318 318 317 315 314 313 311 309 307 307 307 307 305 304 304 303 303 302 302 302 301 301 300 300 300 299 298 298 297
298 299 299 299 299 299 299 299 300 300 300 300 301 301 301 301 301 302 302 303 303 303 303 303 303 304 304 305 306 306 307 307 308 310 312 315 316 317 316 316 316 317 317 317 318 318 317 317 316 316 316 316 317 319 318 318 318 318 318 317 315 313 312 310 307 307 306 305 304 303 303 302 302 301 300 300 299 299 298 298 297 296 296 295 295
297 298 298 298 298 298 298 299 299 299 299 299 300 300 300 300 301 301 301 302 302 302 302 302 302 303 303 304 304 305 306 307 307 308 310 311 314 316 316 315 315 315 316 316 317 317 316 315 314 314 315 316 316 317 318 317 317 317 317 316 315 314 312 309 307 306 305 303 303 302 301 300 300 299 298 298 297 297 296 296 295 295 294 294 294
297 297 297 297 297 297 297 298 298 298 298 299 299 299 299 299 299 300 300 301 301 301 301 301 301 301 301 302 303 303 304 305 306 307 308 309 311 313 315 316 315 314 314 315 316 315 313 312 311 313 314 316 316 317 316 315 314 314 314 314 315 313 311 308 306 305 303 302 302 301 299 299 299 298 297 297 296 295 295 295 294 294 293 293 292
296 296 296 296 296 297 297 297 297 297 298 298 298 298 298 298 299 299 299 299 299 299 299 299 299 300 300 300 301 302 302 302 303 305 306 308 309 310 312 313 313 312 312 312 313 312 311 310 311 312 313 314 315 315 312 309 309 310 311 312 313 311 309 307 305 303 303 302 301 299 298 298 297 297 296 295 295 295 294 294 293 293 292 292 291
295 295 295 295 295 296 296 296 297 297 297 297 297 297 297 297 298 298 298 298 298 298 298 298 298 299 299 299 299 300 300 301 301 302 304 305 306 307 308 309 308 308 308 308 308 309 308 308 309 310 310 309 310 310 307 305 305 308 310 311 311 309 308 306 304 303 302 301 299 298 297 296 296 295 295 295 294 294 293 293 292 292 291 291 290
295 295 295 295 295 295 296 296 296 296 296 296 296 297 297 297 297 297 297 297 297 297 297 297 297 298 298 298 298 299 299 300 300 301 303 305 305 306 306 306 304 304 304 305 305 306 305 305 307 308 307 305 305 305 305 304 305 306 307 308 308 307 306 305 303 302 301 299 298 297 296 296 295 295 294 294 293 293 293 292 292 291 291 290 290
295 295 296 296 295 295 295 295 295 296 296 296 296 296 296 296 296 296 295 295 296 296 296 296 296 296 297 297 298 298 299 299 299 300 301 303 305 306 306 306 305 304 304 304 303 303 305 305 305 305 304 303 303 303 302 302 303 303 304 304 304 303 302 301 300 300 299 298 297 296 295 295 294 294 293 293 293 293 292 292 291 291 291 290 290
295 295 295 295 295 294 294 294 294 295 295 295 295 295 295 295 295 295 295 295 295 295 295 295 295 295 296 296 297 297 298 298 299 299 299 300 302 304 305 306 306 305 305 304 303 302 303 303 303 302 302 302 301 301 300 299 299 299 300 300 299 299 299 299 298 298 297 297 296 295 295 294 294 293 293 293 293 292 292 291 291 291 291 290 290
296 295 295 294 294 294 294 294 294 294 294 294 294 294 294 294 294 294 294 294 294 294 295 294 294 294 295 296 296 296 297 297 298 298 298 298 299 301 302 303 304 304 304 304 302 301 300 300 300 300 301 300 300 299 299 298 298 298 298 298 298 298 298 297 297 297 296 296 296 295 295 294 293 293 293 292 292 292 291 291 291 291 291 291 291
296 296 295 295 294 294 294 293 293 293 293 293 293 293 293 293 293 293 293 293 293 294 294 294 294 294 294 295 295 296 296 297 298 298 298 298 298 299 299 300 302 303 303 303 302 300 300 299 299 299 299 299 299 299 299 299 298 297 297 297 297 297 297 296 296 296 296 295 295 295 294 293 293 293 292 292 292 292 291 291 291 291 291 291 290
296 296 295 294 294 294 293 293 293 293 292 292 292 292 292 292 292 291 291 292 292 292 293 293 293 293 293 294 294 295 296 297 297 298 299 299 298 298 299 300 301 302 302 302 301 300 299 299 298 299 299 299 300 300 299 298 297 297 297 297 297 297 297 296 296 296 296 295 294 294 293 293 293 292 292 292 292 291 291 291 291 291 291 290 290
296 296 295 294 294 293 293 293 293 292 292 291 291 291 291 290 290 290 291 291 291 291 291 291 292 292 293 293 294 294 295 296 297 298 299 299 298 298 299 299 301 303 302 301 300 300 299 298 298 298 299 299 299 299 298 298 297 298 298 298 297 297 297 296 296 295 295 294 293 293 293 293 292 292 292 292 291 291 291 291 291 291 290 290 290
296 296 295 294 294 293 293 292 292 292 292 291 290 290 290 290 290 291 291 290 290 290 291 291 292 292 293 293 294 294 296 296 297 298 298 298 298 298 298 299 301 303 302 300 300 300 299 298 297 297 298 298 298 297 297 297 297 298 298 297 297 297 296 296 295 294 294 293 293 293 292 292 292 292 292 291 291 291 291 290 290 290 290 289 289
296 296 295 294 293 293 292 292 292 292 291 291 290 290 291 291 291 291 291 291 290 290 291 292 292 293 293 294 294 295 296 296 296 297 297 298 298 298 298 299 300 302 301 300 299 298 298 298 297 297 297 297 297 297 296 296 297 298 297 297 296 296 295 294 294 294 293 293 293 292 292 292 292 291 291 291 291 290 290 290 290 290 289 289 289
295 295 295 294 293 293 292 292 292 292 292 291 291 291 292 292 291 291 291 291 290 290 291 292 293 293 294 294 294 295 296 295 295 296 297 297 297 298 298 298 299 300 301 300 300 299 299 299 299 298 297 297 297 297 297 297 298 297 297 296 296 295 294 294 293 293 293 292 292 292 292 291 291 291 291 290 290 290 289 289 289 289 289 289 289
294 294 294 293 293 293 292 292 291 291 292 292 292 292 292 292 292 292 292 292 291 291 291 292 293 293 294 294 294 295 295 295 295 296 296 297 297 297 297 298 298 299 299 300 300 300 300 299 299 298 298 297 297 297 297 297 298 297 296 295 295 294 293 294 293 293 292 292 292 292 291 291 291 290 290 289 289 289 289 289 289 289 289 289 290
294 294 293 293 293 292 292 292 291 292 292 292 292 292 292 293 293 292 291 291 292 292 292 293 293 293 294 294 294 295 295 295 296 296 296 297 297 296 296 297 297 298 298 298 299 299 299 299 299 298 298 298 298 298 298 298 298 297 295 294 294 293 293 293 293 292 292 291 291 291 291 291 290 290 289 289 288 288 289 289 289 289 289 289 290
294 294 293 293 292 292 292 291 292 292 292 292 292 292 292 292 292 292 291 291 292 292 292 292 293 293 293 294 294 294 295 295 295 295 296 296 296 296 296 296 296 297 297 297 298 298 298 299 299 299 299 298 297 297 297 296 296 296 295 293 293 293 292 292 292 292 292 291 291 291 291 290 290 289 289 289 289 289 289 289 289 289 289 289 290
294 293 293 292 292 292 291 292 292 292 292 292 292 292 292 292 292 291 291 291 291 291 291 292 292 293 293 294 294 295 295 295 295 295 295 295 294 295 295 295 296 296 297 297 297 297 297 297 297 297 297 296 296 296 296 295 294 294 293 293 292 292 292 291 291 291 291 291 291 291 291 290 289 289 289 289 289 289 289 289 289 289 289 290 290
294 293 293 292 292 291 292 292 292 292 292 292 292 292 292 292 292 291 291 291 291 291 291 291 291 292 293 294 294 295 295 295 295 295 295 294 294 294 295 295 296 296 296 295 295 295 294 294 294 294 294 294 293 293 293 293 292 292 292 292 292 292 291 291 291 291 291 291 291 291 290 289 289 289 289 289 289 289 289 289 289 290 290 290 290
294 293 293 293 292 292 292 292 292 292 292 292 292 292 292 292 292 291 291 291 291 291 291 291 291 291 292 293 294 294 294 294 294 294 294 293 294 295 295 295 295 295 294 294 294 294 293 292 292 292 292 291 291 292 292 292 292 292 292 292 292 292 291 291 291 291 291 291 290 290 289 289 289 288 288 289 289 289 289 289 290 290 290 290 290
294 294 293 293 293 292 292 292 292 292 292 292 292 292 292 292 292 291 291 291 291 291 291 291 291 291 291 292 292 293 293 293 293 293 293 293 294 294 295 295 295 294 294 293 293 293 292 292 292 292 292 292 292 293 293 293 293 293 293 292 291 291 291 291 291 291 290 290 289 289 288 288 288 288 288 289 289 289 289 289 290 290 289 290 290
294 294 293 293 293 293 292 292 292 292 291 292 292 292 292 292 292 292 291 291 291 291 291 291 291 291 291 291 292 292 292 292 292 293 293 293 293 294 294 294 294 294 294 294 293 293 293 293 293 293 293 293 293 293 293 292 292 292 292 291 291 291 291 291 290 290 289 289 289 288 288 288 288 288 288 289 289 289 289 289 290 290 289 290 291
295 294 294 293 292 292 292 292 292 292 291 291 291 291 292 292 292 291 291 291 291 290 290 290 291 291 291 290 290 291 291 291 292 292 292 292 292 292 292 292 293 293 294 294 294 294 294 294 294 293 293 293 292 292 292 292 292 291 291 291 290 290 289 289 288 288 288 289 288 288 288 288 288 288 288 288 288 288 289 289 289 290 290 290 290
295 295 294 293 293 292 292 292 292 292 292 291 291 291 291 291 291 291 291 291 290 290 290 290 290 290 290 290 290 290 290 290 290 290 290 290 290 290 290 291 292 292 293 293 293 293 293 293 293 292 292 291 291 291 291 290 290 290 289 289 288 288 287 287 287 288 288 289 288 288 288 288 288 288 289 289 288 288 289 289 289 289 289 289 290
295 295 295 294 293 293 292 292 292 292 291 291 291 291 291 291 291 291 291 291 291 291 290 290 290 290 289 289 289 289 289 289 289 289 289 289 289 289 289 290 290 291 291 291 292 291 291 291 291 290 290 289 289 288 288 288 288 287 287 287 287 287 287 286 287 287 288 288 288 288 288 288 288 288 289 288 288 288 288 289 289 289 289 289 289
294 295 295 294 293 293 292 292 292 292 292 291 291 290 290 290 290 290 291 291 291 291 291 291 290 290 289 289 289 289 289 289 289 289 289 289 289 289 289 290 290 290 290 290 289 289 289 289 288 288 288 288 287 287 287 287 287 287 287 287 287 287 287 286 286 287 288 288 288 288 288 288 288 288 288 288 288 288 288 288 289 289 289 289 289
294 295 295 295 294 293 293 292 292 292 292 291 291 290 289 289 289 290 290 291 291 291 291 291 291 291 291 290 290 290 290 290 290 289 289 289 290 290 290 290 290 289 289 289 289 289 289 288 288 288 287 287 287 287 287 287 287 287 287 288 288 287 287 287 287 287 288 288 288 288 288 289 288 288 288 288 288 288 288 288 288 288 288 289 289
294 295 295 295 294 294 293 292 292 292 292 291 291 291 290 289 289 290 290 290 290 290 291 291 291 291 291 291 291 291 291 291 291 291 291 291 291 291 291 291 291 290 290 290 290 290 289 289 288 288 287 287 287 287 287 287 288 288 288 288 288 287 287 286 287 288 288 288 288 288 288 288 288 288 289 289 288 288 288 288 288 288 288 288 288
295 295 295 295 295 294 293 293 292 292 292 291 291 291 291 290 290 290 289 290 290 290 290 290 290 290 291 291 291 291 291 290 290 290 290 290 290 290 290 290 290 290 289 289 289 288 288 288 288 288 288 288 287 287 287 288 288 288 288 288 287 287 286 286 287 288 288 288 288 288 288 289 289 289 289 288 288 288 288 288 288 288 288 289 289
Wind_Speed
18 18 19 21 24 24 23 22 21 21 21 20 20 19 17 15 13 13 12 11 10 11 13 14 13 12 10 9 8 8 8 8 8 9 11 12 11 11 10 11 12 13 13 14 15 14 15 15 14 14 16 19 20 19 19 18 18 19 20 20 19 15 15 14 10 10 14 12 11 13 14 13 13 13 13 13 14 13 11 10 9 8 7 6 6
24 23 22 23 24 23 21 21 21 21 21 20 20 19 17 16 15 14 13 11 11 12 13 14 13 12 10 9 8 9 9 9 9 10 11 11 11 10 10 11 12 13 13 13 13 12 13 14 14 15 16 18 19 18 18 18 18 20 22 22 22 20 17 16 13 13 15 14 13 14 14 13 12 13 14 13 13 12 11 10 9 7 6 5 4
22 22 22 23 24 22 21 20 20 20 21 21 20 19 18 17 16 15 13 12 12 13 13 14 13 12 11 10 9 10 10 10 9 10 11 12 11 11 10 10 10 11 11 11 11 11 10 11 11 13 15 17 17 16 16 16 16 19 22 24 24 23 20 18 14 14 17 16 15 16 16 15 13 12 13 13 12 11 10 9 8 8 6 4 3
21 21 23 23 22 20 20 20 20 20 21 20 19 20 19 18 18 16 13 12 13 13 13 14 14 12 12 11 10 10 10 10 10 9 10 11 11 10 9 8 8 8 8 8 9 8 9 9 8 8 10 13 14 14 13 13 13 15 19 24 27 25 23 20 15 13 17 18 17 18 17 16 14 12 12 12 12 11 10 9 9 9 8 7 5
22 24 24 22 20 19 20 21 21 21 21 19 19 20 18 18 18 15 13 13 14 14 15 16 16 14 13 12 11 11 11 11 10 10 11 10 10 9 9 8 8 7 7 7 6 6 6 7 7 6 6 8 10 11 11 12 11 11 14 19 23 23 22 21 16 13 15 18 19 18 18 16 14 13 13 13 12 11 10 10 10 10 10 10 8
24 24 23 21 20 20 21 23 23 23 21 18 16 15 15 18 18 15 14 15 16 16 16 17 17 16 15 14 13 12 12 12 12 11 11 11 11 11 10 9 9 9 9 8 6 6 5 6 6 6 6 6 8 9 10 11 11 11 11 13 17 21 21 19 16 14 14 18 19 19 18 17 16 14 15 15 14 14 12 11 11 11 10 10 9
24 24 23 22 23 23 24 26 25 24 21 15 10 11 14 17 17 16 16 17 18 18 18 16 16 17 17 17 15 13 12 12 12 12 11 12 13 13 12 11 11 10 10 9 8 7 7 7 7 7 7 6 7 8 9 10 11 12 12 14 17 21 20 18 16 15 15 17 18 18 17 16 15 14 13 13 14 14 13 12 10 9 9 9 8
26 25 25 25 25 26 27 28 25 22 16 9 9 12 14 16 18 19 19 19 19 20 18 16 16 16 17 16 15 14 13 13 13 13 13 13 14 15 14 13 13 12 12 11 10 9 8 7 7 8 7 7 7 7 8 10 12 13 14 15 17 18 18 16 16 16 16 16 17 16 15 14 14 12 10 10 13 13 12 12 11 10 10 10 8
24 25 26 26 27 29 29 29 27 22 16 15 16 18 17 19 21 22 21 20 21 21 19 18 17 16 16 16 16 16 16 15 15 15 15 15 15 16 15 15 15 14 14 13 12 11 10 9 8 8 8 8 8 7 7 8 12 14 14 14 15 15 16 16 17 17 16 16 16 14 13 13 13 11 10 11 13 14 13 12 12 11 10 8 7
19 20 21 20 21 23 26 27 24 21 20 21 22 21 20 21 22 23 22 22 22 22 21 19 19 19 18 17 18 18 19 18 17 17 18 18 17 17 17 17 17 16 15 14 14 13 12 11 11 11 11 10 10 9 8 7 9 13 14 13 12 13 14 15 16 17 17 17 16 15 13 12 12 12 12 12 13 13 13 12 12 11 8 6 5
16 15 13 11 11 14 18 20 19 19 22 23 22 20 20 19 20 21 21 21 21 22 21 18 17 18 18 18 19 20 21 21 20 19 20 20 20 19 19 20 20 18 17 16 16 16 15 14 13 13 13 13 12 12 11 9 9 11 13 12 11 10 11 12 13 14 15 16 16 15 14 13 12 12 12 12 12 12 11 11 10 9 6 4 4
17 14 11 11 11 11 13 15 14 15 18 20 21 19 16 16 16 16 18 17 17 19 21 19 17 17 18 17 17 19 22 23 23 23 22 22 22 21 21 22 21 17 17 18 18 17 17 16 16 16 15 15 15 15 14 14 13 13 13 13 13 12 11 11 11 12 14 15 15 15 15 14 13 13 13 13 12 11 10 9 7 5 3 3 2
20 17 14 13 13 12 12 11 12 13 15 16 16 15 14 14 13 12 12 12 12 13 16 18 18 18 18 17 17 19 21 24 24 23 22 22 22 21 22 24 23 20 20 21 20 19 19 18 18 18 17 17 18 18 17 18 17 16 15 14 14 13 12 11 11 11 13 14 15 14 13 13 13 13 13 12 12 10 9 7 5 3 3 3 3
26 23 21 19 16 15 13 12 13 14 14 12 10 9 9 10 10 9 8 8 7 7 9 12 14 15 14 14 15 16 17 19 20 19 20 21 22 22 23 24 24 23 22 22 22 22 21 20 20 20 20 20 20 20 20 20 20 20 18 16 15 13 13 12 11 10 10 11 11 11 10 10 10 11 12 10 9 8 6 4 3 2 2 2 2
31 30 29 27 25 22 19 17 15 13 13 11 10 8 6 6 6 6 6 6 6 5 5 8 9 10 11 12 13 14 14 15 17 19 20 21 21 23 23 23 23 22 21 22 22 22 21 20 21 21 21 22 22 22 22 22 22 22 20 18 16 15 14 13 13 12 11 9 7 7 8 9 8 9 10 9 7 6 5 3 3 3 2 1 2
31 31 30 29 29 28 25 23 21 18 18 18 18 15 10 6 4 4 5 5 5 4 5 6 5 8 11 12 14 15 15 15 16 17 18 19 20 22 23 23 22 22 22 22 22 22 21 21 21 22 22 23 23 23 23 23 24 24 22 20 18 16 16 15 14 13 11 9 6 6 8 10 10 9 9 8 6 4 3 3 3 2 2 2 3
29 30 29 28 28 27 26 26 25 23 22 21 21 19 17 14 10 7 5 3 2 1 2 4 4 7 10 12 14 15 14 15 16 15 16 19 20 22 23 23 23 23 23 24 24 23 22 21 21 22 22 23 23 22 23 24 25 24 23 21 19 18 17 16 14 12 11 9 9 9 10 11 10 9 7 5 4 3 3 3 2 2 3 3 4
28 28 28 27 26 25 24 24 23 23 23 22 21 19 18 17 14 12 10 9 7 5 2 1 3 6 9 10 13 13 12 13 15 16 17 18 19 20 21 21 22 22 23 23 23 23 22 21 21 22 22 22 21 21 22 25 26 26 24 22 20 19 17 16 14 13 12 11 11 12 12 11 9 7 5 4 4 3 3 3 3 4 4 5 5
26 26 25 23 23 23 22 22 22 21 21 20 19 18 17 15 13 12 11 10 9 7 6 4 3 2 4 6 8 10 11 11 13 15 16 17 18 19 20 21 22 23 23 23 23 23 22 21 21 21 21 19 19 20 22 25 27 26 24 22 21 20 17 16 16 16 15 14 13 13 11 9 8 6 5 4 4 3 3 4 5 5 5 5 5
23 22 21 20 20 19 19 19 19 19 18 17 16 15 14 13 12 11 10 9 8 7 7 7 6 6 5 6 6 6 8 10 11 12 14 15 16 18 19 21 23 24 23 23 23 23 23 21 20 20 18 18 19 20 22 25 26 25 23 23 22 20 18 17 16 15 14 14 14 12 11 9 8 7 5 5 4 4 4 5 5 4 4 4 3
20 20 20 20 20 19 18 18 17 17 16 15 13 13 13 12 11 11 10 10 9 9 9 8 8 8 8 9 9 9 9 9 9 10 11 13 14 16 17 19 21 22 22 22 23 22 21 20 19 18 18 18 19 21 22 25 25 25 24 23 21 19 19 19 17 15 14 14 13 12 11 9 8 6 6 5 4 4 3 3 2 2 1 1 1
18 19 19 20 20 19 19 17 17 16 15 14 14 14 14 13 12 11 10 10 9 10 10 10 10 9 10 10 10 11 11 11 10 9 9 11 13 15 16 17 19 20 20 21 21 20 20 19 19 18 19 19 21 22 23 25 26 26 26 24 21 19 19 19 18 16 15 15 14 12 11 10 9 8 7 6 5 5 4 3 3 2 2 3 3
17 18 18 19 19 19 18 18 17 17 16 15 15 15 14 14 13 13 12 11 11 11 11 12 11 11 10 11 11 11 13 13 13 13 11 10 12 14 15 16 16 17 19 19 19 20 20 19 19 20 21 22 23 24 25 25 27 27 26 25 22 20 20 21 20 18 18 16 15 14 13 12 11 10 9 8 8 6 5 5 4 4 5 6 7
16 17 18 18 18 18 17 17 17 17 16 15 15 15 15 14 14 14 14 13 13 13 13 13 13 13 13 12 12 12 13 14 15 15 15 14 13 13 15 17 16 17 18 19 20 20 20 20 21 22 23 24 26 27 27 28 29 29 28 25 22 21 23 23 22 21 20 18 16 16 15 13 11 11 10 9 8 6 4 3 4 5 6 7 8
15 16 17 17 16 16 15 15 15 16 15 15 15 16 16 15 15 15 14 14 14 14 15 14 14 14 13 13 13 12 13 14 14 15 16 16 16 14 14 15 16 16 18 19 20 20 20 19 21 22 23 24 26 28 27 23 21 23 25 24 23 24 26 25 23 22 20 19 18 18 17 15 13 12 11 9 7 4 3 3 4 5 6 7 8
15 16 16 16 15 14 13 14 14 13 13 13 13 13 14 14 14 14 14 14 14 14 15 15 15 14 13 13 12 11 11 12 13 13 14 15 17 15 13 12 12 13 15 17 18 19 19 20 20 20 20 19 20 22 21 15 12 16 22 24 25 26 26 25 24 23 22 21 20 19 18 16 14 12 10 7 5 3 3 4 5 7 8 8 8
17 17 17 16 16 15 14 13 13 12 12 12 11 11 11 11 12 13 13 13 13 13 14 14 15 15 15 15 14 13 11 10 10 11 11 12 13 14 12 10 9 9 11 12 14 15 18 19 19 18 15 12 12 14 14 12 14 17 20 23 24 23 23 22 21 21 21 21 20 19 18 16 13 11 9 6 4 3 4 5 6 8 8 9 9
17 17 17 16 16 16 15 14 13 12 12 11 11 11 11 10 11 12 13 13 13 13 12 13 13 14 14 15 16 15 13 10 10 11 11 11 10 10 11 11 10 10 12 13 12 12 13 15 15 14 13 12 13 14 13 15 17 19 20 20 19 19 19 18 18 18 19 19 20 19 18 15 13 10 8 5 4 4 5 5 7 8 9 9 10
16 16 15 15 15 14 15 14 13 12 11 11 11 11 11 11 11 10 10 10 10 10 11 11 11 12 12 12 13 15 15 13 13 13 13 12 11 10 10 10 10 10 10 11 11 9 8 9 11 13 15 16 18 18 17 16 15 16 17 17 16 16 16 16 17 18 19 19 19 18 17 14 12 9 7 4 4 4 4 5 6 8 8 9 10
15 14 13 12 12 12 13 13 12 12 11 11 11 11 10 10 10 10 10 9 8 8 8 8 10 11 12 12 12 12 13 14 14 14 14 14 13 12 11 9 9 10 11 11 9 7 5 6 10 14 17 19 20 20 19 17 14 14 14 16 16 16 14 13 15 18 18 17 16 15 13 12 10 8 6 4 3 4 4 4 5 7 7 8 9
13 12 11 11 10 9 10 11 11 11 10 10 11 11 11 10 9 8 9 10 9 7 6 8 9 10 12 14 14 13 12 12 13 14 15 15 14 14 13 12 10 12 14 13 9 7 6 8 12 15 17 19 20 20 20 20 19 18 18 17 15 14 14 16 17 18 17 15 14 12 11 9 8 7 5 3 3 3 3 4 5 6 7 7 8
11 11 10 9 9 9 9 9 9 9 9 10 10 11 12 13 12 11 10 9 8 7 7 9 11 11 11 13 14 15 14 13 13 14 14 15 15 14 14 13 12 13 14 12 10 9 9 10 14 17 19 21 22 22 22 23 24 24 21 19 16 16 17 18 17 16 15 14 13 12 10 9 8 7 5 3 2 1 2 3 5 5 6 6 7
10 9 8 8 10 9 8 8 9 8 9 10 10 10 11 12 14 15 14 12 10 8 8 9 10 10 10 11 11 12 12 12 13 14 14 15 15 14 14 13 12 12 12 12 13 12 12 13 16 20 23 25 26 26 26 27 28 25 21 20 19 18 17 16 15 14 13 12 12 12 11 10 8 6 4 2 0 2 3 4 5 5 5 6 8
8 7 6 8 9 9 8 8 7 7 8 9 9 9 9 10 11 13 14 14 14 13 11 10 9 9 8 8 8 8 8 8 9 11 12 13 14 14 13 12 11 10 11 13 15 14 14 16 18 21 24 25 25 26 28 28 27 24 21 21 22 20 19 17 15 14 13 12 11 11 10 9 8 6 4 2 1 3 3 4 4 4 5 6 8
6 6 6 7 8 8 7 7 6 6 7 8 8 8 8 9 9 11 12 12 13 14 14 14 11 8 7 6 4 4 4 6 8 9 10 10 10 11 11 11 10 11 13 15 15 14 14 15 17 20 22 22 22 24 27 27 26 24 23 24 24 22 21 19 17 15 14 12 10 9 8 7 7 5 3 1 1 2 2 3 3 4 4 5 8
6 6 6 6 6 7 7 7 7 5 5 7 7 7 7 8 8 10 12 12 12 13 13 14 12 8 5 5 5 5 5 7 9 10 10 9 8 8 8 9 9 10 12 15 16 16 15 15 16 18 20 21 21 23 25 24 22 21 23 25 25 24 23 21 18 16 14 11 9 8 8 8 6 3 2 1 0 1 2 2 2 2 4 6 9
5 5 6 5 5 6 7 7 6 5 4 5 6 7 8 8 9 11 12 13 12 12 12 13 12 8 5 6 7 7 8 9 9 10 10 9 7 7 7 7 8 9 10 12 14 16 17 17 16 17 18 19 19 20 22 21 20 21 23 25 25 24 22 20 17 14 13 11 10 9 8 6 4 2 1 1 2 2 2 1 1 3 5 7 9
5 6 6 5 5 6 6 6 6 5 4 5 7 8 10 10 10 11 12 11 11 11 12 13 13 11 9 9 9 9 9 9 8 9 8 6 7 7 7 6 7 7 8 8 9 12 14 15 15 16 16 16 16 17 19 20 20 21 23 24 24 22 21 18 16 14 12 11 10 9 6 4 3 1 2 2 3 4 4 2 3 4 6 8 10
5 6 6 5 5 5 6 7 8 8 7 7 7 8 10 11 11 12 12 12 11 11 11 11 11 11 11 10 10 9 9 8 8 9 7 6 7 7 6 5 4 4 4 4 5 6 8 9 11 13 14 14 14 16 18 18 19 21 23 24 23 22 19 17 16 14 12 11 10 8 5 3 2 1 2 5 7 7 4 2 3 4 7 9 10
5 6 7 6 6 6 6 7 9 9 9 8 8 9 10 11 12 12 13 13 12 12 12 12 12 11 11 11 11 10 7 6 8 8 7 7 8 7 6 5 5 4 4 4 4 5 6 7 7 8 9 10 11 14 16 16 18 22 24 24 22 19 17 16 14 13 11 10 9 7 5 3 3 3 5 7 8 6 3 2 2 5 8 10 10
3 6 7 7 7 6 6 7 8 9 9 9 10 10 10 11 11 12 13 13 13 13 14 13 12 11 10 9 9 7 6 5 6 5 5 6 7 6 6 6 7 6 5 4 3 2 1 2 2 3 4 5 7 10 12 15 18 21 22 21 18 16 14 12 11 11 10 9 7 5 4 4 5 5 6 7 6 4 1 2 4 6 8 9 10
2 4 6 7 7 7 7 7 7 8 9 10 11 11 10 10 10 12 13 13 14 14 14 13 12 11 10 9 7 6 4 4 4 4 4 4 5 5 6 7 8 9 9 8 6 5 6 9 11 13 14 15 15 16 17 19 19 19 17 16 14 13 12 12 12 11 9 7 5 5 5 6 6 6 7 7 5 3 1 3 6 7 8 8 9
0 3 5 6 7 8 8 7 6 6 8 9 10 10 10 9 10 11 12 13 13 14 14 13 12 12 11 10 9 8 8 8 7 6 5 5 6 7 7 9 10 10 11 12 12 12 14 16 18 18 17 17 16 15 15 15 15 14 13 12 12 13 14 14 12 9 7 6 6 6 6 7 6 6 7 6 4 2 1 4 6 7 8 9 8
3 1 3 4 6 8 8 8 7 6 6 7 8 9 9 9 9 10 11 12 12 12 12 12 12 13 13 13 12 12 12 12 11 10 9 8 8 8 7 8 9 9 11 12 14 15 15 15 15 14 14 13 13 13 13 13 12 11 11 12 12 13 12 10 7 6 6 6 7 7 7 7 7 7 7 6 3 2 1 5 8 6 6 8 9
6 3 1 2 4 6 7 9 9 7 6 6 7 8 9 9 8 9 9 10 11 11 11 12 13 13 14 15 15 15 14 13 12 12 11 11 10 10 9 9 9 10 11 12 12 12 12 12 12 13 14 13 13 13 12 12 11 10 10 10 10 10 8 6 5 6 6 7 7 6 6 6 6 7 7 5 2 3 2 6 8 7 7 9 10
9 6 2 1 1 3 4 6 8 8 8 7 7 7 8 8 8 8 8 9 10 11 12 12 13 14 15 15 16 16 15 14 14 14 13 13 12 12 12 12 13 13 14 14 13 12 12 13 14 14 13 13 13 12 12 12 11 11 11 10 9 9 7 6 5 6 7 7 6 4 3 5 6 7 5 3 2 3 3 4 7 8 8 9 10
11 9 6 3 3 3 2 3 4 6 8 8 7 7 8 8 8 8 8 8 9 11 12 13 15 16 16 16 17 17 16 16 16 15 15 14 14 14 14 14 15 16 16 15 14 13 14 14 15 15 14 14 13 13 13 13 12 12 11 10 9 9 8 6 5 5 6 5 3 2 3 6 7 5 3 1 2 3 4 4 6 7 8 9 11
13 12 9 6 6 5 3 1 1 2 4 6 6 7 7 8 8 8 8 8 9 10 11 13 15 16 17 17 18 18 19 18 18 18 18 17 17 17 16 16 16 16 16 16 16 15 15 15 15 14 13 12 11 11 11 10 9 9 8 8 7 7 6 5 4 4 4 3 3 3 5 6 5 3 1 1 2 4 4 5 5 7 8 8 11
13 14 11 9 8 8 6 4 2 1 1 3 5 6 8 8 8 8 7 7 8 9 9 10 12 13 14 15 15 15 16 16 17 17 18 17 17 16 16 15 15 15 15 15 14 14 13 13 12 11 10 9 9 8 8 7 6 6 5 5 5 5 4 4 4 4 4 4 4 4 5 5 4 3 1 1 1 2 3 4 5 7 8 9 12
12 14 13 11 10 10 8 6 5 4 3 1 1 3 6 7 8 7 6 6 6 7 7 7 8 8 8 9 9 9 10 11 11 11 11 11 11 11 10 10 10 10 10 10 10 9 9 9 8 8 8 7 7 6 6 5 5 5 4 4 4 4 4 4 4 4 5 4 4 4 5 4 3 2 2 2 2 3 3 4 4 5 7 9 11
12 14 13 11 11 11 10 9 8 6 5 3 2 0 1 4 5 6 5 4 4 5 5 6 6 6 7 7 7 8 8 9 9 9 9 8 8 7 7 7 7 7 7 7 6 6 6 6 6 6 6 5 5 4 4 4 5 5 4 4 4 4 4 5 5 5 5 4 4 4 4 2 2 3 3 4 4 4 4 4 3 4 7 8 9
Wind_Direction
168 173 170 175 180 182 183 185 187 187 185 184 185 183 182 183 179 177 181 187 193 187 178 177 179 180 182 186 191 191 187 186 182 177 174 170 166 164 165 167 164 156 150 144 141 142 145 150 158 167 173 178 181 185 191 197 204 206 205 205 205 203 192 177 157 164 185 193 186 178 173 168 166 165 163 161 162 164 161 154 146 136 127 116 103
173 174 173 174 177 178 181 184 187 188 188 187 186 185 184 184 182 180 181 185 190 189 184 182 183 186 187 187 187 188 192 196 196 191 185 179 175 172 169 168 167 164 164 161 155 150 148 151 160 172 181 185 190 197 203 208 212 210 209 211 211 209 202 191 172 165 181 193 193 188 184 179 174 172 175 175 174 177 178 174 168 161 153 142 129
169 171 171 171 171 173 177 181 186 189 188 186 184 185 186 185 183 183 182 185 190 192 193 194 192 191 190 184 179 181 187 191 191 190 188 186 180 173 168 167 165 163 164 166 164 163 160 156 158 171 183 188 193 198 203 204 208 211 212 214 215 213 206 200 190 180 182 189 195 195 192 189 187 184 183 185 189 194 195 194 195 192 188 182 172
168 169 169 170 171 172 174 178 184 187 185 182 181 183 184 185 185 183 182 187 193 198 202 201 197 194 193 190 187 186 187 187 186 186 187 188 185 180 179 181 180 175 171 166 165 167 170 168 163 169 182 188 190 195 200 203 209 217 218 215 215 214 206 204 210 200 189 189 195 199 198 196 196 197 198 198 201 208 213 217 219 218 218 219 218
170 171 170 171 171 171 171 173 178 178 173 174 179 180 182 187 186 182 186 191 196 204 205 199 195 193 193 197 196 193 191 189 189 188 187 189 194 198 198 196 195 199 200 195 184 180 181 178 170 171 188 194 194 199 205 206 212 225 226 218 214 210 202 203 213 214 201 196 196 200 205 207 207 210 215 214 211 215 225 236 241 240 237 234 235
170 167 166 164 162 166 168 168 166 162 159 164 172 178 189 194 188 184 193 197 200 205 206 201 197 193 193 198 198 195 195 198 198 198 202 206 209 211 209 205 206 211 213 213 215 218 219 213 199 191 196 202 201 206 211 211 213 221 224 214 205 200 198 201 209 215 213 204 197 201 209 214 217 221 227 228 225 224 229 239 247 249 243 234 235
168 164 164 163 163 165 163 160 157 152 153 160 171 184 195 197 193 194 200 202 205 208 207 204 200 196 196 200 201 202 204 206 208 212 220 222 218 215 214 215 218 222 222 221 224 228 231 234 231 221 216 219 217 215 218 219 217 216 212 202 194 193 197 202 206 211 213 205 199 202 208 215 221 226 233 232 225 225 231 234 233 230 221 212 216
170 169 169 168 168 168 164 164 164 160 162 185 203 198 202 205 203 203 203 205 209 212 210 206 199 196 200 203 205 208 209 212 216 220 223 221 218 217 218 222 228 231 232 231 230 231 235 242 246 242 239 247 251 241 232 229 225 217 207 201 197 196 198 202 204 208 210 204 199 201 205 211 216 220 223 214 207 210 216 217 208 195 194 198 204
169 173 174 173 173 172 171 172 172 170 183 206 203 198 211 219 212 207 207 207 210 215 217 214 207 203 205 208 210 210 212 216 220 223 222 218 216 220 224 227 229 230 233 234 233 232 236 243 247 250 253 262 267 263 249 237 234 228 216 209 207 206 206 209 210 209 208 204 200 200 200 204 208 211 208 203 203 203 200 199 192 181 185 195 196
163 170 173 170 168 170 170 168 167 170 183 191 192 200 215 217 211 209 209 208 213 217 219 220 217 214 214 216 215 212 213 217 220 222 222 220 220 222 226 228 229 230 231 231 231 233 238 242 244 246 252 257 260 259 249 236 234 230 223 214 211 210 209 209 210 211 212 211 210 208 204 202 205 207 204 200 200 196 190 188 182 175 178 188 195
146 153 149 135 137 154 161 161 162 172 181 183 190 204 211 208 205 207 208 211 217 221 222 224 224 222 222 224 224 222 221 221 222 221 221 222 224 223 225 227 226 227 229 228 230 236 239 241 241 241 245 249 252 253 247 236 226 223 221 215 212 214 210 204 203 205 208 211 214 215 215 211 206 203 200 194 188 184 183 182 179 177 183 193 206
121 122 109 96 100 123 148 159 161 166 173 178 187 197 199 197 199 202 207 213 218 221 224 228 227 224 225 227 229 229 228 227 226 225 224 225 227 229 233 233 228 227 232 232 233 237 239 241 241 239 241 244 247 249 247 241 232 226 225 222 221 225 224 220 214 210 209 208 206 209 211 206 198 195 196 192 184 180 179 182 185 192 218 257 279
102 100 95 93 94 103 123 143 148 149 155 166 177 181 178 177 179 183 190 199 205 213 222 227 228 228 226 225 226 227 229 229 227 226 227 228 230 234 237 236 234 232 234 236 236 239 241 243 244 245 248 248 247 245 244 241 237 232 229 225 225 227 230 231 226 222 223 218 208 200 197 195 191 187 188 188 185 181 181 188 201 221 259 295 310
86 84 82 82 85 93 106 118 127 135 142 151 159 160 160 163 165 167 166 171 184 198 214 224 225 222 218 217 220 221 220 222 223 227 231 233 235 237 235 234 236 235 234 236 241 244 245 248 251 253 254 253 249 244 240 237 235 233 228 223 222 224 225 226 221 214 213 216 212 202 192 193 194 186 181 182 186 193 198 210 229 249 266 284 273
75 74 73 72 74 81 91 100 107 110 111 110 113 122 145 166 170 171 170 178 189 198 223 237 229 222 224 226 226 223 218 219 225 230 233 234 236 238 238 237 240 240 239 240 243 246 249 253 256 258 257 255 253 248 242 235 231 228 225 221 221 222 221 220 216 207 198 198 207 205 190 187 187 184 182 185 195 212 228 243 256 266 262 220 188
67 67 67 66 67 71 77 83 85 86 88 88 88 91 96 107 131 160 174 186 198 210 237 252 238 230 239 244 242 241 239 239 237 233 232 235 238 241 242 242 241 241 241 243 245 250 254 256 257 258 258 255 253 250 244 236 229 225 222 221 222 222 219 214 209 207 204 199 197 190 179 175 176 180 184 190 201 219 238 252 261 260 243 190 178
61 62 61 61 63 64 68 72 74 74 76 75 73 75 76 77 81 89 99 109 116 166 250 259 243 238 245 250 254 256 251 245 246 246 244 246 248 247 246 246 246 246 247 248 251 254 257 259 260 260 259 255 253 249 242 233 227 224 223 222 222 219 214 209 205 203 202 193 181 172 167 167 169 173 178 186 205 229 245 249 243 228 215 200 199
57 58 59 59 60 60 61 64 66 67 66 65 65 67 68 68 68 70 72 72 68 64 51 318 261 257 261 260 263 267 258 243 248 256 256 256 258 256 254 254 255 255 255 255 255 257 259 261 262 261 258 255 249 242 235 228 224 224 224 222 218 212 205 200 196 190 182 175 169 164 162 162 164 170 182 195 211 228 242 238 229 227 221 216 218
53 56 57 57 57 57 55 56 58 60 60 58 58 59 61 62 62 62 63 62 59 58 54 50 48 355 300 282 276 279 275 265 263 265 263 260 261 261 261 261 261 261 261 260 259 260 263 264 261 256 253 249 242 235 230 225 223 225 224 218 213 207 198 190 188 180 168 162 161 160 162 166 173 182 190 198 209 228 245 243 239 240 233 221 220
55 56 55 54 52 51 50 49 50 53 53 52 51 51 52 52 52 51 49 46 42 40 35 29 28 27 14 356 341 325 306 291 282 278 277 274 269 265 265 265 264 264 263 262 262 264 266 263 256 249 245 240 233 230 226 222 221 222 219 214 211 205 193 185 180 173 164 162 163 165 169 173 178 186 193 203 221 236 245 246 243 243 237 220 213
58 57 56 54 52 48 46 44 43 44 46 45 45 46 44 41 41 40 38 35 33 31 28 21 14 14 15 10 4 357 340 321 304 290 284 282 279 275 270 268 268 267 266 265 265 267 267 261 251 244 240 234 227 224 222 220 220 221 219 218 216 208 195 184 175 168 167 168 167 167 171 173 176 184 192 197 207 214 219 220 213 206 210 205 221
58 57 56 54 52 49 46 43 39 37 34 31 33 36 37 35 34 34 32 31 31 31 30 26 20 15 16 14 7 358 348 339 329 313 295 285 281 280 276 273 270 266 265 265 264 263 262 259 253 248 244 238 228 224 222 220 219 221 222 220 217 209 197 186 175 170 171 172 170 168 170 172 171 170 169 164 157 155 150 135 117 93 56 21 353
45 48 49 49 47 46 43 41 38 35 31 28 26 26 27 25 24 25 25 23 24 24 22 19 14 9 8 9 7 1 355 349 342 333 321 303 287 279 276 275 270 262 258 256 257 258 259 260 262 260 254 244 233 227 225 222 220 221 220 218 214 205 194 185 178 173 173 173 171 167 165 165 162 156 153 147 139 131 118 98 68 34 12 356 343
31 34 37 38 36 35 33 30 29 26 24 21 20 21 23 22 22 25 24 23 23 21 17 14 9 5 0 355 354 354 355 353 348 340 333 323 309 292 280 275 271 263 255 250 251 255 259 263 267 266 259 247 235 228 226 224 221 217 214 213 210 199 189 182 175 172 173 172 170 165 161 163 164 157 151 144 133 121 100 67 32 5 353 347 342
35 37 37 35 33 30 27 25 23 20 16 13 12 13 13 13 18 22 22 24 26 24 21 18 14 11 5 354 346 344 346 349 349 345 340 334 327 314 294 283 277 266 256 250 250 254 258 263 267 266 261 249 234 225 226 229 227 219 212 207 199 190 183 178 173 173 174 173 169 165 161 161 160 153 146 138 131 122 93 49 20 5 359 356 353
49 50 45 41 37 31 28 28 26 23 21 20 18 16 11 9 12 14 15 20 21 20 18 15 12 12 9 1 352 342 338 344 348 347 344 341 340 334 315 297 288 278 266 257 254 255 257 262 267 267 262 248 230 224 229 229 218 211 203 193 185 181 178 176 176 177 176 171 166 162 158 155 152 145 140 136 132 114 69 42 25 15 9 5 3
58 56 52 48 43 36 32 28 23 20 20 21 21 19 14 10 10 9 10 11 11 10 9 7 5 3 1 358 354 345 338 340 343 340 339 342 344 340 329 315 302 293 289 282 271 263 257 258 261 260 250 230 212 216 219 200 182 184 184 177 174 175 177 179 181 179 173 166 161 157 153 152 148 143 141 136 121 85 53 36 23 15 11 7 6
60 57 55 53 48 43 38 32 25 19 16 14 16 18 15 10 9 9 8 5 0 358 358 357 356 354 350 348 346 342 337 336 335 332 331 334 333 325 322 318 302 287 291 294 285 271 259 252 248 237 219 198 186 185 180 172 173 178 177 173 171 173 175 177 175 169 164 159 156 153 150 148 146 144 140 128 100 68 47 31 16 10 9 6 2
62 60 55 50 46 41 36 32 29 23 16 9 8 7 4 0 357 354 353 352 349 344 340 340 339 334 331 333 337 337 336 333 329 323 318 317 314 304 304 312 304 289 288 287 280 275 263 240 220 203 190 182 176 170 162 161 167 172 170 169 167 166 168 170 165 160 158 157 155 152 149 148 146 143 136 117 90 65 45 26 10 4 3 358 351
61 60 53 47 42 37 33 29 25 21 15 6 359 352 347 346 343 337 333 332 330 325 319 316 318 315 310 308 310 318 327 329 325 316 306 301 299 294 293 297 290 280 283 284 279 278 262 219 198 189 183 177 169 162 160 161 164 163 162 162 159 159 165 171 167 160 156 154 151 148 147 148 146 141 131 113 90 70 42 15 360 353 348 342 337
49 47 46 43 39 36 33 27 22 19 15 8 1 352 344 339 336 335 334 329 324 317 299 288 292 298 300 297 291 290 298 309 313 310 301 293 288 285 286 286 272 266 278 284 274 261 248 217 195 187 183 177 171 166 166 169 170 168 167 166 166 171 176 175 169 160 154 149 145 144 146 147 142 136 129 115 92 66 24 353 341 334 329 326 326
34 35 37 33 27 26 27 26 24 23 18 14 9 1 352 347 343 343 345 341 333 325 311 300 296 293 292 292 288 285 286 291 297 300 295 288 283 280 284 283 270 263 271 269 248 238 237 220 203 194 187 182 181 182 183 180 176 173 173 175 179 183 180 173 167 161 155 150 147 147 145 140 137 136 133 124 98 43 344 320 316 314 312 315 320
22 22 23 21 18 16 21 26 28 28 24 17 11 5 359 355 350 346 347 347 342 333 327 325 321 312 298 286 281 282 282 283 288 292 289 283 279 277 280 282 273 264 260 249 238 236 234 228 220 208 197 191 189 189 188 184 179 178 178 179 180 181 180 175 169 162 157 154 150 145 141 140 147 154 154 153 184 320 309 301 302 306 312 320 325
18 11 8 14 14 12 18 24 23 26 25 16 11 11 10 2 353 346 344 343 341 340 344 351 351 339 321 300 279 274 277 284 293 296 291 285 278 274 275 276 270 258 246 240 240 240 237 236 231 217 206 201 198 192 188 185 183 181 180 181 183 183 180 176 169 162 159 157 150 143 144 156 166 169 164 167 283 305 299 297 307 320 326 330 330
18 4 0 12 15 14 17 15 9 14 20 16 18 23 13 358 351 347 341 337 334 335 344 355 359 354 351 349 329 300 298 313 323 321 309 298 289 279 273 269 261 249 238 235 239 243 244 245 239 224 212 208 204 198 194 189 186 184 186 188 188 182 174 170 167 163 160 158 151 147 155 165 166 162 159 161 288 295 300 318 333 333 332 334 331
21 5 2 14 21 16 10 3 358 9 20 17 15 10 355 348 356 358 351 343 336 332 339 352 358 3 20 22 8 355 346 339 339 340 337 327 314 301 289 282 275 263 250 245 245 247 249 252 248 235 223 217 214 210 204 198 194 195 195 193 187 179 171 168 166 164 164 162 157 157 162 161 155 150 144 120 20 336 338 351 348 336 334 331 325
32 20 16 22 23 12 2 359 1 10 15 5 3 1 358 2 12 10 360 353 346 339 338 348 356 0 4 1 353 349 348 343 339 339 339 338 342 342 326 309 298 286 273 264 259 255 253 253 251 245 239 234 230 221 212 208 210 207 198 189 183 176 170 168 168 169 168 161 157 159 160 153 145 135 95 56 45 62 76 63 26 349 334 327 323
41 35 31 29 19 5 1 7 18 27 24 12 10 12 11 10 10 8 3 359 355 346 339 343 351 350 340 337 338 338 339 339 336 332 331 341 357 355 340 321 307 298 293 287 276 269 265 262 258 256 254 253 246 235 225 220 216 206 193 185 180 173 167 165 167 168 166 161 159 161 158 143 131 109 60 70 97 115 116 84 26 355 330 325 330
42 43 40 34 22 10 12 26 37 40 37 30 25 23 19 13 10 12 14 13 10 5 356 352 355 353 343 336 335 335 338 345 347 344 347 3 11 3 351 342 334 324 320 314 299 286 281 275 269 266 263 258 249 237 230 222 209 197 187 179 173 168 165 164 163 162 166 170 168 163 155 146 141 115 95 109 118 120 113 71 21 346 327 329 337
41 48 45 38 27 19 24 40 44 41 37 33 28 25 21 18 19 25 29 28 29 28 23 18 13 5 354 344 337 334 340 357 5 7 13 19 18 18 20 18 17 15 7 349 322 299 284 273 268 262 255 248 239 230 222 211 196 185 177 170 163 159 158 158 159 165 173 176 169 160 155 157 158 144 131 126 122 114 97 55 4 335 334 343 350
41 52 48 41 32 24 31 44 44 37 35 32 24 20 20 20 26 35 37 37 39 41 38 34 28 18 6 356 346 338 340 356 14 32 41 32 29 37 41 36 37 41 39 28 9 344 290 211 184 176 180 187 194 194 188 178 170 164 159 156 155 154 155 160 168 177 179 177 172 164 159 161 164 157 147 138 127 113 70 3 348 338 340 349 351
47 52 48 45 40 32 33 40 39 33 33 31 24 21 22 25 31 38 39 40 43 46 45 44 41 36 32 26 17 11 18 33 51 69 68 55 61 73 73 73 79 84 83 79 71 76 108 122 123 124 126 126 129 136 141 144 148 149 149 152 159 166 172 177 179 179 180 183 184 177 170 170 169 163 157 150 135 116 14 336 344 345 344 347 345
194 49 46 49 48 40 33 31 25 23 27 29 24 21 24 30 37 41 43 44 46 47 49 49 48 47 49 48 45 48 58 69 79 83 81 85 93 93 91 96 100 101 99 99 98 103 113 117 119 121 123 122 122 124 128 133 140 146 152 161 173 178 178 175 172 175 186 196 194 189 184 178 170 163 163 159 144 135 300 338 352 352 344 344 346
222 42 45 53 55 49 41 33 27 23 24 27 27 25 26 32 39 44 47 50 51 52 54 54 52 50 52 52 53 57 63 70 78 83 87 94 99 98 98 104 108 107 108 110 112 115 118 118 119 121 122 121 119 120 123 128 135 142 151 163 172 176 175 176 181 191 203 205 201 197 190 179 172 169 166 162 166 203 303 358 6 1 350 353 359
224 226 60 68 68 58 47 39 35 32 29 28 31 33 33 35 41 47 51 54 58 60 60 59 57 54 53 54 57 61 66 72 80 87 91 94 95 95 99 106 108 106 105 108 113 118 120 119 119 119 119 121 124 127 129 134 140 145 153 163 171 174 175 180 189 193 196 197 196 194 187 180 177 173 167 169 205 242 298 357 5 5 2 3 1
225 224 226 186 124 92 65 48 37 32 33 35 38 43 44 43 47 55 61 65 67 68 68 69 67 64 62 63 64 67 71 76 82 88 92 96 98 101 105 110 111 109 107 108 109 110 112 115 120 123 126 130 136 139 140 141 144 146 150 154 158 156 152 153 165 178 185 187 186 187 182 170 165 162 163 180 230 246 273 336 359 8 5 358 354
227 222 227 226 198 169 118 73 45 32 34 40 47 54 56 52 49 54 62 70 75 77 77 79 79 77 76 76 76 77 79 82 84 88 91 93 95 99 103 107 110 111 111 112 112 112 115 120 125 128 132 136 138 139 139 139 140 141 142 142 140 136 131 130 141 161 173 177 173 158 142 142 145 149 159 216 257 260 271 308 350 3 356 351 355
230 222 225 226 211 203 198 163 99 39 34 40 46 53 60 60 56 54 57 66 78 84 86 88 90 90 88 88 87 87 89 90 91 93 93 93 94 97 100 102 105 107 108 109 109 111 114 117 119 121 123 126 126 126 127 126 127 128 130 130 128 127 123 116 115 130 145 144 130 129 136 139 143 150 160 282 285 283 282 294 327 346 345 341 348
230 219 221 226 219 213 213 208 203 211 35 43 42 46 56 65 67 62 59 68 82 89 89 91 94 95 94 94 92 92 94 95 96 96 96 96 96 98 100 102 105 108 108 107 107 107 108 110 111 112 114 114 112 112 110 107 108 110 111 112 116 122 122 115 107 115 127 121 110 124 142 151 160 171 184 256 276 285 289 289 308 340 349 338 334
223 215 219 227 225 218 216 215 212 213 216 215 38 45 59 70 73 67 61 68 82 86 84 85 88 86 84 84 83 83 87 90 91 92 94 95 94 95 96 99 103 105 105 105 106 108 112 114 115 114 112 107 102 96 89 83 87 91 92 98 111 121 126 127 123 123 125 119 116 136 156 166 182 209 254 277 259 254 277 285 297 333 344 332 326
215 213 219 227 226 220 219 219 215 214 221 230 233 223 82 92 91 83 71 69 75 77 78 81 80 74 70 68 68 71 75 77 79 81 83 84 86 87 87 87 90 92 96 101 103 105 110 113 114 113 109 101 94 93 90 88 91 92 91 96 107 116 122 127 129 129 131 131 134 148 167 199 230 249 277 289 271 260 275 289 292 313 325 326 326